Henderson, KY

5:13 AM CDT on July 20, 2019 (GMT -0500)
Henderson City-County

Weather History for KEHR - May, 2019

Change the Weather History Date:

Tuesday, May 28, 2019

  Actual Average Record
Temperature  
Mean Temperature 80 °F -  
Max Temperature 89 °F 80 °F 96 °F (2012)
Min Temperature 72 °F 58 °F 44 °F (1961)
Cooling Degree Days 16    
Growing Degree Days 30 (Base 50)    
Moisture  
Dew Point 67 °F    
Average Humidity 64    
Maximum Humidity 81    
Minimum Humidity 42    
Precipitation  
Precipitation 0.00 in - - ()
Sea Level Pressure  
Sea Level Pressure 29.81 in    
Wind  
Wind Speed 11 mph (SW)    
Max Wind Speed 21 mph    
Max Gust Speed 28 mph    
Visibility 10 miles    
Events      
Averages and records for this station are not official NWS values.
T = Trace of Precipitation, MM = Missing Value Source: NWS Daily Summary

Daily Weather History Graph

Daily Weather History Graph

Search for Another Location

Airport or City:

Astronomy

May. 28, 2019 Rise Set
Actual Time 5:32 AM CDT 8:04 PM CDT
Civil Twilight 5:01 AM CDT 8:34 PM CDT
Nautical Twilight 4:24 AM CDT 9:12 PM CDT
Astronomical Twilight 3:42 AM CDT 9:54 PM CDT
Moon 2:36 AM CDT (5/28) 2:21 PM CDT (5/28)
Length of Visible Light 15h 32m
Length of Day
14h 31m
Waning Crescent, 31% of the Moon is Illuminated
May 28
Waning Crescent
Jun 3
New
Jun 10
First Quarter
Jun 17
Full
Jun 25
Last Quarter

Hourly Weather History & Observations

Time (CDT) Temp. Heat Index Dew Point Humidity Pressure Visibility Wind Dir Wind Speed Gust Speed Precip Events Conditions
12:56 AM 75.0 °F - 66.9 °F 76% 29.83 in 10.0 mi SSW 8.1 mph - N/A   Clear
1:56 AM 75.0 °F - 66.0 °F 73% 29.82 in 10.0 mi SSW 8.1 mph - N/A   Clear
2:56 AM 72.0 °F - 66.0 °F 81% 29.82 in 10.0 mi SSW 4.6 mph - N/A   Clear
3:56 AM 73.0 °F - 66.0 °F 79% 29.83 in 10.0 mi SSW 6.9 mph - N/A   Clear
4:56 AM 72.0 °F - 66.0 °F 81% 29.84 in 10.0 mi SSW 8.1 mph - N/A   Clear
5:56 AM 72.0 °F - 66.0 °F 81% 29.84 in 10.0 mi SSW 9.2 mph - N/A   Scattered Clouds
6:56 AM 73.9 °F - 66.9 °F 79% 29.85 in 10.0 mi SSW 9.2 mph - N/A   Scattered Clouds
7:22 AM 75.2 °F - 66.2 °F 73% 29.87 in 10.0 mi SSW 9.2 mph - N/A   Scattered Clouds
7:56 AM 77.0 °F - 68.0 °F 74% 29.85 in 10.0 mi SW 15.0 mph 19.6 mph N/A   Clear
8:56 AM 80.1 °F 82.9 °F 69.1 °F 69% 29.85 in 10.0 mi WSW 18.4 mph - N/A   Partly Cloudy
9:56 AM 82.0 °F 85.5 °F 69.1 °F 65% 29.84 in 10.0 mi SW 17.3 mph 24.2 mph N/A   Partly Cloudy
10:56 AM 84.0 °F 87.0 °F 68.0 °F 58% 29.85 in 10.0 mi WSW 19.6 mph 23.0 mph N/A   Scattered Clouds
11:56 AM 84.9 °F 87.6 °F 66.9 °F 55% 29.84 in 10.0 mi SW 17.3 mph 26.5 mph N/A   Partly Cloudy
12:56 PM 88.0 °F 90.3 °F 66.0 °F 48% 29.82 in 10.0 mi WSW 19.6 mph 27.6 mph N/A   Partly Cloudy
1:56 PM 88.0 °F 90.7 °F 66.9 °F 49% 29.80 in 10.0 mi SW 17.3 mph - N/A   Scattered Clouds
2:56 PM 88.0 °F 89.6 °F 64.9 °F 46% 29.79 in 10.0 mi SW 19.6 mph 25.3 mph N/A   Scattered Clouds
3:56 PM 89.1 °F 91.0 °F 64.9 °F 45% 29.78 in 10.0 mi SW 20.7 mph - N/A   Clear
4:56 PM 89.1 °F 90.0 °F 63.0 °F 42% 29.78 in 10.0 mi SW 18.4 mph - N/A   Clear
5:56 PM 88.0 °F 89.3 °F 64.0 °F 45% 29.76 in 10.0 mi SSW 19.6 mph 26.5 mph N/A   Clear
6:56 PM 86.0 °F 88.2 °F 66.0 °F 51% 29.75 in 10.0 mi SW 13.8 mph - N/A   Clear
7:56 PM 82.9 °F 85.4 °F 66.9 °F 58% 29.74 in 10.0 mi South 8.1 mph - N/A   Clear
8:56 PM 80.1 °F 82.3 °F 66.9 °F 64% 29.75 in 10.0 mi South 8.1 mph - N/A   Clear
9:56 PM 80.1 °F 82.3 °F 66.9 °F 64% 29.77 in 10.0 mi South 8.1 mph - N/A   Clear
10:56 PM 79.0 °F - 69.1 °F 72% 29.77 in 10.0 mi SSW 10.4 mph - N/A   Clear
11:56 PM 79.0 °F - 70.0 °F 74% 29.77 in 10.0 mi SSW 12.7 mph - N/A   Clear